Regional Weather Roundup
Issued by NWS State College, PA

Home | Current Version | Previous Version | Text Only | Print | Product List | Glossary On
Versions: 1 2 3 4 5 6 7 8 9 10 11 12 13 14 15 16 17 18 19 20 21 22 23 24 25 26 27 28 29 30 31 32 33 34 35 36 37 38 39 40 41 42 43 44 45 46 47 48 49 50
318
ASUS41 KCTP 270603
RWRCTP

REGIONAL WEATHER ROUNDUP
NATIONAL WEATHER SERVICE STATE COLLEGE PA
200 AM EDT WED JUL 27 2016

Note: "fair" indicates few or no clouds below 12,000 feet with no
significant weather and/or obstructions to visibility.

* = STATION THAT DOES NOT REPORT PRECIPITATION /E.G. RAIN...SNOW...ETC/
    THUNDER OR FOG.

PAZ002>004-007>009-013>016-020>023-029>032-270700-
WESTERN PENNSYLVANIA

CITY           SKY/WX    TMP DP  RH WIND       PRES   REMARKS
ERIE           CLEAR     65  60  84 S3        30.01S
MEADVILLE      CLEAR     61  56  83 CALM      30.05R
FRANKLIN*      CLEAR     59  55  88 CALM      30.07R
NEW CASTLE     FAIR      62  60  93 CALM      30.04S
BEAVER COUNTY  NOT AVBL
BUTLER*        CLOUDY    64  61  88 CALM      30.06S
PITTSBURGH INT CLOUDY    72  60  66 CALM      30.03S
PITTSBURGH     PTCLDY    73  58  59 CALM      30.03S
INDIANA*       CLOUDY    68  64  88 CALM      30.07S
LATROBE        PTCLDY    68  66  94 CALM      30.04S
WASHINGTON CO* CLOUDY    66  63  88 CALM      30.04F
$$

PAZ004>006-010>012-017>019-024>028-033>037-041-042-045-046-049>053-270700-
CENTRAL PENNSYLVANIA

CITY           SKY/WX    TMP DP  RH WIND       PRES   REMARKS
BRADFORD       CLEAR     55  52  89 CALM      30.06F
DUBOIS         PTCLDY    65  57  75 N3        30.05S
CLEARFIELD     PTCLDY    61  57  87 VRB3      30.05R
JOHNSTOWN      PTCLDY    71  54  54 CALM      30.08R
ALTOONA        CLOUDY    69  58  67 CALM      30.04S
STATE COLLEGE  PTCLDY    69  60  73 CALM      30.02S
WILLIAMSPORT   CLEAR     69  61  75 CALM      29.98R
SELINSGROVE    CLOUDY    67  67 100 CALM      29.98S
FT INDIANTOWN  CLOUDY    76  64  65 N6        29.95S
CAPITAL CITY   CLOUDY    78  65  63 W5        29.94S
HARRISBURG     CLOUDY    79  68  69 NW7       29.93S
YORK           CLOUDY    74  69  85 CALM      29.95S
$$

PAZ038>040-043-044-047-048-054-055-060>062-067>071-270700-
EASTERN PENNSYLVANIA

CITY           SKY/WX    TMP DP  RH WIND       PRES   REMARKS
SCRANTON       CLEAR     67  61  81 E7        29.99S
MOUNT POCONO   CLEAR     63  58  83 W3        30.03S
ALLENTOWN      MOCLDY    70  65  84 CALM      29.96S
QUAKERTOWN*    CLOUDY    70  66  88 CALM      29.97S
READING        CLOUDY    76  65  68 N6        29.94R
LANCASTER      CLOUDY    74  71  91 NE3       29.94S
COATESVILLE    CLOUDY    79  72  78 CALM      29.96F
POTTSTOWN      CLOUDY    74  66  76 CALM      29.96S
BLUE BELL      MOCLDY    70  68  94 CALM      29.94S
DOYLESTOWN     PTCLDY    72  65  78 CALM      29.95S
WILLOW GROVE   NOT AVBL
NORTH PHILA    PTCLDY    76  68  76 CALM      29.95S
PHILADELPHIA   CLOUDY    81  74  79 E3        29.93S
$$




USA.gov is the U.S. government's official web portal to all federal, state and local government web resources and services.